JH4XSY-13 Weather Reports


Display with metric or nautical units.
time (UTC)temp
F
wind
direction
speed
MPH
gust
MPH
rain 1hr
in
rain 24hr
in
rain mn
in
humidity
%
barometer
mb
20181120214320 50 0.0 0.0 0.00 0.00 0.00 62 1018.8
20181120204317 50 0.0 0.0 0.00 0.00 0.00 65 1018.4
20181120201320 50 0.0 0.0 0.00 0.00 0.00 66 1018.4
20181120191320 51 0.0 0.0 0.00 0.00 0.00 70 1018.3
20181120184321 51 0.0 0.0 0.00 0.00 0.00 69 1018.3
20181120174317 52 0.0 0.0 0.00 0.00 0.00 66 1018.3
20181120164317 53 0.0 0.0 0.00 0.00 0.00 63 1018.3
20181120151318 55 0.0 0.0 0.00 0.00 0.00 63 1018.2
20181120134320 57 0.0 0.0 0.00 0.00 0.00 55 1018.0
20181120124317 57 0.0 0.0 0.00 0.00 0.00 54 1018.2
20181120121316 58 0.0 0.0 0.00 0.00 0.00 53 1018.2
20181120074320 61 0.0 0.0 0.00 0.00 0.00 45 1015.2
20181120071320 62 0.0 0.0 0.00 0.00 0.00 42 1015.0
20181120064319 62 0.0 0.0 0.00 0.00 0.00 42 1014.7
20181120051322 62 0.0 0.0 0.00 0.00 0.00 41 1014.3
20181120044319 63 0.0 0.0 0.00 0.00 0.00 39 1014.3
20181120021317 60 0.0 0.0 0.00 0.00 0.00 48 1014.8
20181120011319 58 0.0 0.0 0.00 0.00 0.00 54 1015.1
20181119234316 56 0.0 0.0 0.00 0.00 0.00 73 1015.1
20181119224315 56 0.0 0.0 0.00 0.00 0.00 74 1014.8
20181119221319 55 0.0 0.0 0.00 0.00 0.00 76 1014.3